Location: Cruquius
(52.3348°N, 4.6319°E)
Time: 07:33:00
(UTC+00:00)

USA 215 - Pass Details

Date: 12 May 2021
Orbit: 1100 x 1107 km, 123.0° (Epoch: 14 June)

Event Time Altitude Azimuth Distance (km) Brightness Sun altitude
Exits shadow 22:28:31 - 105° (ESE) 3,834 5.8 -17.7°
Reaches altitude 10° 22:30:47 10° 104° (ESE) 2,957 5.2 -17.8°
Maximum altitude 22:37:18 76° 20° (NNE) 1,136 3.4 -18.1°
Drops below altitude 10° 22:43:51 10° 296° (WNW) 2,966 6.1 -18.3°
Sets 22:46:20 0° 295° (WNW) 3,926 6.7 -18.4°
